Retour au catalogue

ONEWEB-0322

ActifCommunicationsPO
NORAD 49192·PAYLOAD·🇬🇧 United Kingdom

Lancé Sep 14, 2021 depuis Baikonur Cosmodrome

Loading…

Prochains Passages (prochaines 24 heures)

TLE

FraisSource: CelesTrak SupGP

Époque: Sep 14, 2026, 20:07 UTC

1 49192C 21083G   26257.83833750 -.00000103  00000+0 -28158-3 0  2577
2 49192  87.8912 302.3978 0002059  85.0464  18.5874 13.13467794    16

Suivez ONEWEB-0322 en temps réel avec AllMySat

Download on the App Store